Vorticity
4 4 3 3 3 3 5 4 6 4 -1 9 5 6 11 9 8 10 9 8 9 9 10 11 10 9 8 7 10 9 11 5 6 0 4 5 7 3 8 -8 22 2 4 15
5 4 4 5 4 4 6 7 7 3 4 2 5 4 5 3 5 11 8 11 12 11 11 9 7 10 8 10 8 8 8 8 11 13 29 30 18 10 11 8 -3 4 -18 -1
5 6 5 4 4 4 7 7 9 6 5 10 2 5 5 5 5 6 8 7 4 3 7 5 3 5 8 6 9 10 11 16 -8 -22 -25 -22 -8 -11 3 22 -4 -7 -32 -16
5 5 5 6 6 5 3 7 10 6 0 -2 3 8 3 5 3 8 4 10 3 1 5 -3 12 -6 -0 2 8 9 14 4 5 6 9 7 7 6 8 -0 2 -11 -12 1
6 5 3 5 7 6 7 6 7 9 6 5 9 8 6 4 7 8 7 3 1 5 3 -2 -2 1 3 1 0 1 2 2 2 -1 7 8 10 5 3 3 2 5 6 3
7 7 7 7 6 7 8 6 10 7 7 7 6 4 7 9 10 9 8 11 7 6 2 -2 4 5 5 -0 3 5 3 10 10 26 28 23 51 30 41 31 27 27 23 31
8 7 8 6 9 10 9 10 7 11 8 7 5 7 6 7 6 4 3 5 6 6 4 6 6 5 4 4 4 9 6 9 20 0 23 32 29 25 19 16 18 16 28 16
10 9 8 9 7 7 9 9 10 6 7 10 8 11 9 6 5 5 6 5 3 4 5 2 9 13 35 31 43 35 29 16 -11 -4 10 -30 -5 -22 -4 -0 6 11 12 20
8 8 8 7 8 8 6 6 5 6 5 3 5 4 1 2 2 3 4 4 0 -2 2 11 11 -9 -1 29 10 12 -1 25 7 1 1 -5 23 16 18 23 17 13 8 0
1 -6 -2 3 4 5 3 1 -0 -4 -3 -1 -2 -3 -2 -2 1 1 4 6 10 8 9 16 14 12 -1 5 7 16 31 26 14 11 -14 22 9 -7 -11 6 -1 6 4 2
16 14 36 53 35 20 14 9 9 -1 2 -5 2 0 0 7 10 15 11 24 22 17 23 25 14 16 10 36 18 2 7 10 18 41 12 27 21 16 5 12 9 6 5 4
10 12 3 10 8 10 13 16 11 20 33 21 32 35 35 36 32 20 17 3 -23 -4 1 24 27 11 -1 13 -1 21 20 14 -7 -14 2 -19 -1 10 11 10 1 2 -8 -15
14 16 17 17 16 16 13 12 10 13 9 12 38 40 20 12 10 9 11 17 15 21 17 7 6 -3 -3 -2 6 8 -3 9 9 15 31 13 0 5 -8 25 -8 1 32 25
18 15 14 16 16 15 14 14 14 13 13 9 10 5 -4 -5 8 10 28 20 23 19 24 22 25 16 28 19 10 9 10 4 4 13 -0 -8 5 14 22 26 3 11 15 25
11 16 17 13 11 12 15 15 12 11 13 -12 -22 -23 -1 -5 9 12 8 14 21 28 3 0 5 22 24 37 13 -0 -6 3 11 17 16 16 12 16 -1 22 35 28 14 8
8 10 12 12 14 10 16 15 14 20 19 15 16 24 26 27 30 28 16 16 14 12 5 6 44 22 -14 -11 17 43 4 27 35 14 -13 18 -6 10 42 20 17 13 12 6
13 9 7 10 11 10 13 10 3 5 6 8 31 34 36 34 23 19 15 14 9 12 -3 2 -1 -12 41 1 -39 -19 10 30 33 20 33 35 22 23 19 12 7 4 4 4
21 23 18 10 7 10 9 15 14 13 12 17 23 10 12 7 6 8 11 12 19 28 35 42 36 19 28 46 39 39 19 30 20 -15 27 24 14 8 6 6 4 5 4 6
9 14 22 25 18 14 12 19 14 17 14 11 7 7 11 23 21 18 22 21 15 15 18 22 20 22 18 3 14 4 4 8 33 19 10 8 8 4 4 4 1 2 2 3
18 19 21 23 20 21 20 13 17 24 17 5 7 6 -4 1 -5 -1 -8 14 14 11 12 16 25 35 27 29 21 9 9 2 5 8 9 5 5 3 2 -1 -1 1 5 6
14 16 19 13 9 11 8 16 16 14 15 18 22 21 31 25 10 21 22 12 14 11 13 7 7 14 4 9 11 7 10 12 7 9 9 11 11 12 9 7 6 5 7 9
12 7 16 23 25 19 9 17 12 8 14 15 17 17 21 18 20 13 14 15 13 12 9 10 19 12 7 8 4 9 2 6 -6 1 3 5 5 6 6 8 9 9 9 9
9 21 18 15 13 13 13 15 16 12 10 3 5 6 12 5 6 11 8 12 9 12 14 17 20 14 11 -7 -1 7 0 5 6 6 7 8 8 9 7 7 8 8 8 9
14 18 15 12 13 12 14 15 13 16 11 10 11 11 10 14 13 12 9 11 14 13 14 -8 5 3 0 0 4 7 7 7 8 10 8 7 6 8 9 10 12 14 13 13
19 17 12 14 20 7 15 10 4 4 5 5 7 10 16 20 9 13 12 13 13 13 -0 -4 -2 -1 -1 10 12 11 11 11 10 7 5 9 13 14 14 14 15 15 16 17
14 12 13 8 8 14 1 3 5 7 9 9 21 15 13 14 13 13 13 14 8 -4 -5 -3 -2 12 16 10 5 5 7 10 14 18 17 2 16 18 20 21 18 16 18 19
12 8 5 4 7 6 9 5 11 18 19 14 14 13 11 13 15 10 10 -1 -4 -2 1 19 13 -0 5 14 18 18 14 9 6 6 15 21 19 22 17 16 19 18 18 17
Height
3113 3113 3112 3110 3109 3108 3107 3106 3106 3104 3101 3102 3098 3097 3096 3096 3096 3096 3095 3095 3094 3094 3094 3095 3096 3096 3096 3097 3097 3098 3099 3098 3098 3099 3098 3099 3099 3099 3101 3102 3101 3099 3098 3090
3109 3109 3109 3109 3107 3107 3105 3104 3103 3103 3102 3101 3099 3098 3097 3097 3097 3096 3095 3095 3095 3095 3095 3096 3095 3095 3096 3096 3097 3098 3098 3098 3098 3096 3098 3096 3095 3096 3097 3097 3096 3091 3094 3085
3107 3106 3106 3105 3105 3104 3105 3104 3102 3101 3100 3099 3098 3097 3097 3097 3097 3097 3096 3095 3094 3094 3094 3094 3095 3096 3097 3098 3098 3098 3098 3096 3097 3096 3095 3094 3093 3093 3093 3092 3090 3084 3080 3078
3102 3102 3100 3101 3101 3100 3101 3101 3100 3098 3097 3097 3097 3097 3096 3095 3095 3095 3095 3094 3094 3094 3094 3093 3093 3093 3093 3093 3093 3093 3092 3090 3090 3088 3088 3086 3085 3085 3084 3080 3080 3075 3071 3070
3095 3095 3096 3095 3095 3096 3096 3096 3096 3096 3095 3093 3093 3092 3093 3093 3093 3093 3092 3092 3092 3091 3091 3092 3091 3091 3091 3091 3090 3090 3090 3087 3083 3080 3081 3079 3075 3076 3072 3069 3067 3061 3062 3060
3087 3087 3087 3088 3089 3089 3088 3089 3089 3088 3089 3089 3089 3088 3088 3088 3089 3089 3088 3088 3088 3087 3089 3087 3086 3085 3085 3086 3085 3084 3084 3082 3079 3073 3074 3070 3063 3059 3059 3056 3054 3055 3053 3056
3077 3077 3078 3079 3080 3080 3081 3081 3082 3082 3081 3082 3082 3083 3083 3083 3083 3082 3082 3083 3082 3083 3081 3081 3080 3080 3078 3077 3078 3078 3075 3076 3076 3070 3071 3066 3053 3051 3050 3049 3047 3047 3048 3048
3068 3069 3069 3070 3071 3072 3073 3073 3074 3073 3072 3074 3075 3075 3075 3076 3076 3076 3076 3076 3076 3075 3075 3074 3071 3071 3068 3067 3066 3066 3067 3068 3070 3068 3062 3051 3050 3049 3047 3046 3043 3042 3043 3044
3058 3059 3059 3060 3062 3063 3063 3064 3065 3065 3062 3064 3067 3067 3068 3068 3068 3068 3068 3069 3068 3068 3067 3066 3061 3062 3062 3059 3057 3058 3060 3060 3062 3059 3058 3050 3042 3041 3041 3041 3038 3039 3039 3038
3047 3048 3049 3049 3051 3052 3053 3054 3056 3055 3052 3054 3057 3057 3057 3058 3058 3058 3058 3058 3059 3059 3056 3055 3054 3051 3053 3049 3048 3050 3050 3050 3049 3051 3049 3039 3038 3040 3040 3040 3038 3034 3033 3032
3037 3036 3036 3037 3038 3040 3040 3040 3042 3044 3039 3041 3042 3044 3046 3046 3045 3046 3046 3048 3045 3048 3047 3047 3045 3041 3042 3039 3039 3040 3043 3043 3042 3044 3045 3036 3032 3033 3036 3032 3029 3028 3026 3025
3026 3027 3027 3028 3028 3028 3028 3029 3029 3028 3026 3025 3028 3028 3031 3030 3031 3033 3032 3033 3036 3038 3037 3036 3036 3034 3032 3033 3033 3035 3036 3036 3035 3036 3031 3028 3026 3026 3026 3025 3023 3022 3020 3017
3017 3017 3018 3018 3018 3018 3019 3019 3018 3019 3017 3017 3018 3020 3019 3018 3020 3023 3023 3023 3027 3027 3029 3029 3029 3027 3026 3026 3026 3028 3029 3028 3025 3027 3022 3022 3022 3021 3019 3017 3017 3015 3013 3010
3010 3009 3009 3009 3009 3010 3010 3010 3009 3009 3009 3007 3011 3010 3011 3009 3012 3013 3014 3016 3018 3019 3021 3020 3019 3019 3017 3017 3019 3018 3022 3020 3019 3017 3015 3015 3013 3011 3010 3009 3007 3005 3003 3002
3005 3004 3003 3003 3003 3003 3003 3003 3003 3003 3006 3000 3003 3003 3003 3004 3004 3006 3008 3009 3010 3011 3012 3012 3012 3011 3013 3010 3010 3008 3012 3013 3013 3009 3009 3008 3006 3003 3002 3001 2999 2997 2996 2996
3000 2999 2998 2998 2996 2996 2996 2997 2997 2996 2996 2996 2995 2996 2995 2996 2996 2997 3000 3001 3003 3004 3003 3005 3004 3004 3006 3002 3002 3002 3002 3002 3002 3002 3001 3000 2998 2996 2995 2994 2993 2993 2993 2991
2993 2992 2992 2991 2991 2991 2992 2992 2991 2990 2991 2991 2989 2988 2988 2988 2989 2991 2992 2994 2997 2999 2998 2996 2998 3000 3002 2999 2995 2995 2994 2995 2995 2994 2993 2991 2990 2990 2989 2990 2990 2990 2989 2986
2986 2985 2984 2985 2985 2986 2986 2985 2985 2985 2986 2987 2986 2985 2986 2985 2986 2987 2988 2989 2990 2992 2993 2994 2994 2994 2992 2991 2990 2989 2988 2988 2988 2987 2987 2987 2988 2988 2988 2987 2985 2984 2982 2980
2983 2980 2978 2978 2978 2979 2979 2980 2980 2980 2984 2982 2981 2982 2983 2983 2982 2983 2984 2984 2986 2987 2988 2991 2992 2990 2990 2988 2987 2986 2986 2985 2984 2984 2985 2984 2984 2983 2983 2981 2980 2977 2975 2972
2978 2977 2977 2974 2974 2975 2976 2976 2977 2976 2977 2978 2978 2979 2980 2982 2982 2981 2984 2982 2984 2982 2984 2986 2986 2987 2985 2984 2983 2982 2982 2983 2982 2981 2980 2980 2979 2977 2976 2974 2973 2970 2966 2961
2976 2975 2973 2973 2973 2973 2974 2974 2974 2975 2975 2975 2975 2976 2976 2977 2979 2979 2980 2980 2980 2981 2983 2983 2982 2983 2982 2982 2981 2980 2979 2978 2978 2977 2976 2975 2973 2971 2969 2967 2964 2959 2954 2950
2974 2973 2971 2970 2970 2971 2972 2971 2972 2973 2973 2974 2975 2975 2974 2975 2976 2977 2978 2978 2979 2980 2981 2981 2980 2982 2980 2981 2980 2979 2978 2977 2977 2975 2972 2970 2967 2964 2960 2956 2952 2947 2943 2938
2973 2971 2970 2969 2971 2971 2970 2970 2972 2973 2973 2974 2974 2975 2975 2976 2977 2977 2977 2976 2978 2978 2978 2980 2981 2979 2979 2978 2977 2976 2975 2973 2971 2968 2965 2961 2958 2954 2950 2945 2941 2936 2931 2927
2972 2970 2970 2970 2970 2971 2970 2971 2973 2974 2974 2974 2973 2973 2974 2975 2976 2975 2975 2975 2975 2976 2977 2980 2979 2978 2977 2975 2973 2971 2967 2964 2961 2958 2954 2950 2947 2943 2939 2934 2929 2924 2919 2915
2971 2971 2970 2970 2971 2971 2971 2972 2973 2974 2974 2973 2973 2974 2974 2973 2974 2974 2974 2974 2974 2976 2978 2978 2976 2974 2972 2970 2967 2964 2960 2957 2953 2950 2945 2941 2937 2932 2927 2922 2917 2912 2907 2902
2971 2971 2971 2971 2972 2972 2973 2973 2974 2974 2973 2973 2973 2973 2973 2973 2973 2974 2974 2975 2976 2977 2976 2974 2973 2970 2968 2964 2961 2957 2953 2949 2944 2940 2935 2930 2925 2920 2915 2910 2906 2901 2896 2892
2971 2970 2971 2971 2971 2971 2971 2972 2973 2972 2972 2972 2973 2973 2973 2974 2974 2975 2975 2975 2976 2975 2974 2972 2969 2965 2961 2957 2952 2948 2943 2939 2935 2930 2925 2920 2915 2910 2905 2901 2897 2892 2888 2883